Temperature
17 16 16 16 17 18 18 18 18 18 19 19 18 18 18 18 18 18 19 19 20 20 21 20 20 20 20 20 19 19 18 18 18 17 17 16 16 15 15 15 14 14 14 14
16 16 17 17 18 18 18 17 18 18 18 18 18 18 18 18 18 18 19 19 20 20 20 20 20 20 20 20 19 19 18 18 18 17 17 16 16 16 15 15 15 14 14 14
16 17 18 18 18 18 18 17 18 18 18 18 18 18 18 18 18 18 19 19 20 20 21 21 20 20 20 20 19 19 19 18 18 17 17 17 16 16 16 15 15 15 14 14
17 17 18 18 18 18 17 18 18 18 17 17 18 17 18 18 17 17 18 19 19 20 21 21 21 20 20 20 19 19 19 18 18 17 17 17 17 16 16 16 15 15 15 15
17 17 18 18 18 18 18 18 18 17 17 17 17 17 17 17 17 17 17 18 19 20 20 21 21 20 20 20 19 19 19 18 18 17 17 17 17 16 16 16 15 15 15 15
17 17 18 18 18 18 18 17 17 16 16 17 17 17 17 16 17 17 17 18 19 20 20 20 20 20 20 20 19 19 19 18 18 18 17 17 17 16 16 16 16 15 15 15
17 17 17 18 17 17 17 16 16 16 16 17 17 17 17 18 17 18 18 18 19 20 20 20 20 20 20 20 19 19 19 18 18 18 17 17 17 16 16 16 16 16 15 15
16 16 17 17 17 16 16 17 16 16 16 16 17 17 17 18 18 19 19 19 19 19 20 20 20 20 19 19 19 19 18 18 18 18 17 17 17 16 16 16 16 15 15 15
16 16 17 18 18 17 16 16 16 16 16 16 16 17 18 17 17 17 17 18 18 19 19 20 19 19 19 19 19 19 18 18 18 17 17 17 17 16 16 16 16 15 15 15
16 16 17 18 17 17 17 16 15 16 16 17 18 17 17 17 16 16 16 17 18 19 19 19 19 19 19 19 19 18 18 18 18 17 17 17 17 16 16 16 16 15 15 15
17 17 17 17 18 17 16 16 16 15 16 16 17 17 18 18 17 16 16 18 19 19 19 19 19 19 19 19 18 18 18 18 17 17 17 17 16 16 16 16 15 15 15 15
16 15 16 17 18 18 18 17 16 16 16 16 16 18 19 18 17 17 17 18 19 19 19 19 19 19 18 18 18 18 18 17 17 17 16 16 16 16 16 16 15 15 15 15
16 16 16 17 17 18 18 17 17 16 15 15 16 18 18 17 17 18 18 18 18 19 19 19 18 18 18 18 18 18 17 17 17 17 16 16 16 16 16 15 15 15 15 14
17 16 17 17 18 18 18 18 17 17 16 16 16 18 18 17 16 16 17 18 18 19 19 18 18 18 18 18 18 17 17 17 17 16 16 16 16 16 15 15 15 15 14 14
17 17 17 18 19 19 19 19 18 17 17 17 18 17 18 17 16 17 17 18 18 18 18 18 18 18 18 18 18 17 17 17 16 16 16 16 15 15 15 15 15 14 14 14
16 17 18 19 19 19 19 19 18 18 18 18 18 18 18 18 18 17 17 17 17 18 19 18 18 18 18 18 18 17 17 17 16 16 16 15 15 15 15 14 14 14 14 14
16 17 17 18 19 19 19 19 19 18 18 18 18 19 17 16 16 17 17 18 19 19 19 19 19 19 18 18 18 17 17 16 16 16 15 15 15 15 14 14 14 14 13 13
16 16 16 17 18 19 19 20 19 19 19 18 19 18 17 18 19 20 20 20 20 20 20 20 19 19 18 18 17 17 17 16 16 15 15 15 15 14 14 14 13 13 13 13
16 16 15 16 17 18 19 19 19 19 19 18 18 18 18 18 18 18 20 21 21 21 21 20 20 19 18 18 17 17 16 16 16 15 15 15 14 14 14 13 13 13 13 12
15 15 15 15 18 18 20 20 20 20 20 19 18 17 17 17 16 18 22 21 21 20 20 20 19 19 18 18 17 17 16 16 16 15 15 14 14 13 13 13 13 12 12 12
16 15 15 15 17 17 18 19 20 20 20 21 20 19 18 18 21 23 23 22 21 20 20 20 19 19 18 18 17 17 16 16 15 15 14 14 13 13 13 12 12 12 12 11
16 15 14 14 16 17 19 18 19 20 22 22 21 21 20 21 22 22 22 22 21 20 20 19 19 18 18 17 17 16 16 16 15 15 14 14 13 13 12 12 12 11 11 11
15 16 15 16 17 18 18 20 21 22 22 23 23 23 22 21 21 22 22 21 21 20 20 19 19 18 18 17 17 16 16 15 15 14 14 13 13 12 12 12 11 11 11 11
13 13 13 14 15 17 19 20 21 22 23 23 23 23 23 22 22 21 21 21 20 20 19 19 18 18 17 17 16 16 15 15 14 14 14 13 13 12 12 11 11 11 11 11
14 12 13 14 15 17 20 21 22 22 23 23 23 23 22 22 21 21 21 21 20 20 19 19 18 18 17 17 16 16 15 14 14 14 13 13 12 12 12 11 11 11 10 10
12 13 14 16 17 16 19 21 22 22 22 22 22 22 22 22 21 21 20 20 20 19 19 18 18 18 17 16 16 15 15 14 14 14 13 13 12 12 11 11 11 11 10 10
Wind_Speed
3 5 4 5 5 4 5 4 3 1 0 2 3 2 1 2 5 5 5 6 6 5 3 3 4 5 6 5 6 5 6 5 5 3 3 3 2 2 2 3 5 6 6 7
5 2 5 5 5 4 4 4 2 2 2 2 2 1 1 2 4 5 7 7 7 4 3 4 5 5 5 6 6 5 5 5 4 3 2 2 2 0 1 2 4 6 6 6
6 4 4 5 5 4 3 4 4 3 2 3 3 3 1 1 1 2 4 4 5 7 7 5 5 5 6 6 6 6 5 5 4 4 3 3 3 3 3 3 3 4 6 6
3 3 4 5 4 5 2 5 6 4 3 0 2 1 4 2 2 3 4 4 6 6 6 5 6 6 6 5 5 6 6 5 4 4 4 4 3 1 1 1 2 4 5 5
3 4 6 5 5 6 4 5 5 4 4 2 2 3 5 1 4 6 5 5 6 6 6 6 6 6 5 5 5 6 6 4 4 4 4 4 3 1 0 1 2 3 4 5
3 2 3 4 3 6 8 7 6 5 4 1 3 3 5 5 7 6 6 6 6 6 6 5 4 5 4 4 5 5 6 4 4 4 4 4 4 2 1 1 2 2 3 3
0 0 1 3 6 4 6 6 3 2 1 4 3 3 8 7 7 8 10 9 6 6 6 6 6 6 5 5 5 5 6 4 3 4 3 3 3 3 2 1 1 1 2 2
4 2 4 4 6 7 6 7 6 5 5 2 1 5 7 4 3 5 7 7 7 6 6 6 7 6 6 6 5 6 6 4 4 4 3 2 2 2 1 1 1 1 1 2
6 4 1 2 3 8 6 4 4 5 3 2 4 5 6 2 4 6 7 8 8 8 7 7 6 6 6 6 5 5 6 5 4 3 3 2 2 1 0 0 0 1 1 1
7 4 2 3 5 3 5 6 5 5 6 3 3 4 5 7 8 8 9 10 9 8 7 7 6 6 5 5 5 5 5 5 4 3 3 3 2 1 1 2 1 1 2 2
4 5 1 3 6 7 5 4 4 4 4 5 3 7 7 11 12 14 13 11 10 10 9 7 6 5 5 5 5 5 5 5 4 4 3 3 2 2 2 2 2 1 2 2
5 5 3 4 3 6 6 8 7 5 4 4 4 7 4 8 10 12 11 9 9 9 8 7 7 6 6 6 5 5 5 5 4 4 4 3 3 3 3 3 3 2 2 2
7 6 4 1 1 3 4 6 5 5 5 5 5 6 4 3 7 9 10 10 9 9 8 7 6 7 6 6 6 5 5 5 4 5 5 4 3 3 3 2 3 3 3 3
6 4 6 8 7 7 6 7 7 6 5 6 7 8 5 5 9 10 10 11 10 9 9 8 7 7 6 6 6 6 5 5 5 5 5 4 3 2 2 2 3 3 3 3
6 4 5 6 5 7 7 9 10 9 9 9 8 9 10 11 13 13 12 11 11 10 10 10 9 7 7 6 6 6 5 5 6 6 5 3 2 3 3 4 4 4 4 4
5 4 3 2 4 6 6 9 12 10 7 8 6 8 7 4 7 9 12 14 14 13 12 11 10 9 9 8 8 7 6 5 6 6 5 4 4 4 4 3 4 4 4 4
6 6 4 3 2 4 6 11 12 8 8 9 10 11 6 7 13 16 17 17 16 15 13 14 12 11 10 9 9 8 7 7 7 6 5 4 4 4 3 3 4 4 4 4
8 6 4 3 3 5 9 5 9 10 9 11 9 8 11 12 11 10 12 17 16 15 14 13 12 11 9 8 8 8 8 8 7 6 5 4 4 4 3 4 3 3 2 3
5 8 5 4 4 6 8 4 7 8 9 10 11 8 6 6 5 2 9 13 16 16 13 12 11 10 10 10 10 9 8 7 7 6 6 5 5 4 3 3 2 1 2 2
5 5 5 4 3 5 8 3 4 6 6 7 11 11 9 11 6 8 10 13 12 11 11 11 10 9 11 10 11 11 9 8 8 7 6 5 5 5 4 3 2 1 2 1
4 3 5 5 5 8 8 3 7 6 9 5 10 11 14 12 9 5 10 12 12 11 11 13 13 11 11 12 12 11 9 9 8 7 6 5 5 4 4 3 2 2 2 2
9 7 6 6 4 9 5 7 9 9 3 4 7 10 13 9 4 6 10 12 13 12 11 13 13 11 10 12 12 11 10 8 7 7 6 5 4 4 3 4 2 2 2 1
8 9 8 9 9 5 4 8 5 3 4 5 7 8 11 8 6 7 8 11 12 13 13 12 12 12 10 10 11 12 9 8 8 7 6 5 4 3 3 4 3 2 2 2
4 3 4 5 8 7 6 6 5 5 5 4 6 8 10 9 8 8 9 10 11 11 12 11 12 12 11 10 9 9 8 9 9 8 6 5 5 4 3 3 3 3 3 3
5 6 4 5 7 6 6 5 5 4 3 4 5 6 9 10 9 9 10 10 11 10 10 12 13 13 12 11 9 7 9 10 8 7 6 5 5 4 4 3 4 5 5 5
6 8 8 7 8 6 6 4 3 5 5 6 7 6 6 9 10 9 9 9 10 10 10 10 10 10 10 10 9 7 8 9 9 7 6 5 4 4 4 3 3 6 7 8
Wind_Direction
97 98 153 174 175 156 138 132 133 152 334 125 147 169 187 175 170 186 192 195 202 214 211 156 152 143 134 129 128 129 126 126 120 104 97 88 58 14 13 15 24 29 29 30
77 173 192 161 154 134 128 120 124 70 45 122 120 57 253 198 198 201 196 197 197 192 167 154 148 146 148 149 146 141 142 141 137 123 122 123 121 56 350 350 13 22 22 21
154 200 176 149 143 139 143 163 169 143 73 53 93 356 302 267 235 203 196 193 186 185 179 171 158 158 155 159 165 162 154 144 138 124 104 81 58 36 17 4 356 358 13 20
170 196 157 148 161 146 187 179 160 142 119 9 116 201 272 240 253 216 209 192 187 183 175 169 162 163 170 174 163 152 146 140 139 137 131 124 118 116 274 299 322 341 5 12
197 172 162 171 185 157 160 126 125 119 123 75 54 140 274 199 225 227 210 193 186 179 170 169 168 167 166 160 153 147 138 133 137 140 141 128 121 139 17 5 359 357 356 0
198 190 177 176 138 140 122 94 75 59 78 158 210 171 255 219 211 203 196 190 181 174 162 154 142 131 135 130 128 132 135 134 137 140 139 138 137 131 89 23 355 345 342 344
136 243 184 127 104 100 121 116 98 79 121 235 215 199 245 239 210 190 186 186 177 165 156 149 145 144 147 140 138 134 135 134 136 137 140 147 152 152 164 219 282 317 332 336
162 221 205 174 153 155 159 144 154 168 189 234 225 229 253 272 203 167 163 163 160 159 159 157 158 158 155 149 141 138 141 138 135 137 139 131 135 145 176 209 221 269 280 294
170 210 197 162 131 134 137 159 155 125 130 143 249 275 301 110 133 150 153 159 172 172 165 159 153 152 150 145 147 149 144 135 136 142 131 112 104 119 131 39 31 299 299 310
157 162 189 144 91 51 144 142 118 135 151 194 260 258 231 201 192 180 177 181 181 170 162 154 153 154 148 144 139 132 133 134 129 128 128 115 96 81 75 73 45 355 337 355
152 142 147 142 173 171 138 141 140 136 156 156 216 260 223 200 188 186 190 186 176 170 165 159 155 149 139 130 128 127 128 123 120 122 111 97 85 73 69 61 33 12 7 11
155 126 160 216 213 183 173 174 158 160 192 177 183 263 277 206 187 181 181 177 170 164 158 154 151 144 138 135 131 131 131 130 131 123 110 100 84 75 63 43 21 21 25 18
149 130 116 78 51 182 190 182 173 140 128 158 177 260 327 168 165 171 169 167 162 156 150 147 149 152 151 147 143 141 140 138 128 120 112 98 81 71 55 32 21 27 34 32
132 139 169 187 200 181 188 185 171 150 165 193 218 247 279 200 179 175 173 166 161 160 158 157 160 162 158 154 151 147 142 137 131 121 113 103 88 77 56 44 39 35 40 45
138 177 207 225 204 176 191 190 184 189 192 192 224 225 241 215 193 183 171 161 160 166 169 169 169 166 160 155 151 147 141 137 132 122 115 112 99 82 69 59 47 41 42 45
147 171 184 261 218 198 214 210 199 206 202 217 239 252 244 178 150 159 168 171 176 180 180 177 171 168 168 165 160 152 148 145 134 127 128 121 101 83 70 62 55 51 44 38
162 153 154 239 224 144 242 219 200 199 197 186 212 232 184 167 182 185 182 183 186 185 183 180 178 177 174 170 161 158 154 142 135 133 131 124 112 96 79 75 68 57 44 43
153 148 154 166 126 217 240 225 192 199 216 203 214 217 192 197 195 189 183 185 187 185 182 181 176 172 167 159 153 145 141 140 138 138 138 135 127 117 100 85 74 57 55 58
149 143 135 144 193 268 291 241 178 183 239 214 212 220 192 124 97 218 202 193 192 186 179 175 171 163 157 157 152 141 141 141 142 149 153 154 145 136 124 112 101 88 85 68
78 105 124 137 170 233 251 254 170 133 259 231 195 195 164 133 161 231 198 186 179 166 161 158 152 148 155 159 151 147 151 154 165 170 168 161 153 149 153 159 152 136 120 107
122 110 148 170 211 256 250 219 128 154 236 228 185 179 167 180 199 193 159 171 167 158 156 154 154 159 164 158 153 155 159 176 180 166 157 156 161 164 166 158 152 142 124 89
170 167 182 159 195 252 233 149 177 213 225 183 178 175 177 187 154 133 152 158 156 153 151 155 158 159 157 158 158 162 178 181 162 154 156 165 172 177 159 153 156 147 137 119
190 188 186 189 212 240 221 213 236 204 201 197 181 179 172 167 164 154 154 156 159 158 158 158 156 153 156 165 166 172 182 162 153 154 166 174 174 176 166 166 171 170 166 173
243 163 155 231 263 262 260 255 256 222 217 205 181 165 162 163 161 154 152 155 156 157 159 155 151 155 166 173 176 175 164 158 154 163 174 175 175 185 189 188 186 187 197 206
209 160 174 241 270 293 283 246 234 210 190 161 150 158 162 154 154 156 157 160 160 156 157 159 163 168 173 173 176 169 159 156 160 168 174 178 184 188 200 211 213 211 219 208
191 176 177 220 226 202 244 263 202 177 176 166 146 137 146 155 155 153 158 159 157 156 156 160 163 165 167 169 174 171 165 163 163 171 181 186 189 197 204 219 259 254 242 255
Height
1507 1512 1517 1516 1516 1518 1521 1525 1528 1527 1523 1525 1528 1529 1529 1528 1529 1531 1532 1533 1535 1537 1540 1543 1545 1547 1549 1551 1552 1554 1554 1555 1555 1555 1555 1555 1554 1553 1553 1551 1550 1549 1547 1546
1512 1515 1512 1512 1514 1516 1521 1526 1528 1527 1524 1527 1530 1531 1529 1528 1529 1529 1530 1532 1534 1537 1539 1542 1544 1547 1549 1551 1552 1554 1555 1556 1556 1556 1556 1556 1555 1555 1554 1553 1552 1550 1549 1547
1512 1512 1510 1512 1516 1519 1522 1526 1528 1529 1528 1528 1531 1534 1530 1528 1528 1529 1530 1531 1533 1535 1538 1540 1543 1546 1548 1550 1552 1554 1555 1556 1557 1557 1557 1557 1556 1556 1555 1554 1553 1552 1550 1549
1510 1509 1510 1513 1516 1518 1525 1520 1523 1527 1534 1539 1535 1546 1533 1530 1529 1528 1528 1530 1531 1534 1537 1539 1542 1545 1547 1550 1552 1554 1555 1556 1557 1557 1558 1558 1557 1557 1556 1555 1554 1553 1552 1551
1510 1508 1510 1514 1514 1515 1520 1519 1523 1528 1535 1540 1538 1545 1539 1530 1530 1528 1527 1528 1530 1532 1535 1538 1541 1544 1546 1549 1551 1553 1555 1556 1557 1557 1558 1558 1558 1557 1557 1556 1555 1554 1553 1552
1507 1506 1507 1509 1510 1512 1517 1523 1528 1533 1538 1548 1541 1545 1541 1532 1526 1524 1525 1526 1528 1531 1534 1537 1540 1543 1546 1548 1550 1552 1554 1555 1556 1557 1558 1558 1558 1558 1557 1556 1556 1555 1554 1553
1509 1508 1506 1507 1513 1516 1518 1530 1544 1548 1551 1549 1538 1540 1536 1520 1518 1519 1521 1524 1527 1530 1533 1536 1539 1542 1545 1547 1549 1551 1553 1554 1556 1556 1557 1558 1558 1557 1557 1557 1556 1555 1554 1553
1515 1517 1507 1506 1509 1516 1519 1525 1541 1550 1553 1548 1539 1540 1526 1516 1514 1516 1519 1522 1525 1529 1532 1535 1538 1541 1543 1546 1548 1550 1552 1553 1555 1556 1556 1557 1557 1557 1557 1556 1556 1555 1554 1554
1513 1514 1504 1504 1505 1510 1520 1525 1525 1536 1542 1547 1542 1532 1520 1515 1515 1516 1518 1521 1524 1527 1530 1533 1537 1540 1543 1545 1547 1549 1551 1552 1553 1555 1556 1556 1556 1556 1556 1556 1555 1555 1554 1554
1503 1511 1505 1505 1506 1510 1513 1519 1529 1537 1547 1549 1540 1534 1527 1517 1516 1516 1517 1519 1522 1526 1529 1532 1536 1539 1541 1544 1546 1548 1550 1551 1553 1554 1555 1555 1555 1556 1556 1555 1555 1554 1554 1553
1498 1507 1510 1507 1509 1512 1517 1521 1524 1532 1533 1544 1547 1534 1507 1506 1506 1510 1513 1516 1519 1523 1527 1531 1534 1538 1540 1543 1545 1547 1549 1550 1552 1553 1554 1554 1555 1555 1555 1555 1554 1554 1553 1553
1497 1505 1512 1508 1502 1502 1507 1512 1520 1530 1533 1534 1537 1528 1498 1499 1501 1505 1509 1514 1518 1522 1526 1530 1533 1536 1539 1542 1544 1546 1548 1550 1551 1552 1553 1553 1554 1554 1554 1554 1553 1553 1553 1552
1494 1504 1514 1515 1513 1507 1506 1507 1510 1517 1526 1534 1535 1521 1499 1498 1500 1503 1507 1511 1516 1520 1525 1528 1532 1535 1538 1541 1543 1545 1547 1549 1550 1551 1552 1552 1553 1553 1553 1553 1553 1552 1552 1551
1488 1498 1505 1512 1507 1502 1504 1505 1507 1514 1524 1528 1523 1512 1501 1499 1500 1502 1505 1510 1514 1519 1523 1526 1530 1533 1536 1539 1542 1544 1546 1548 1549 1550 1551 1551 1552 1552 1552 1552 1551 1551 1551 1550
1487 1495 1495 1494 1491 1492 1494 1497 1502 1506 1508 1514 1508 1506 1496 1493 1494 1497 1502 1507 1512 1516 1520 1524 1527 1531 1535 1538 1540 1543 1545 1547 1548 1549 1550 1550 1551 1551 1551 1551 1550 1550 1549 1549
1485 1491 1492 1492 1488 1491 1493 1492 1495 1498 1499 1501 1499 1498 1488 1489 1493 1497 1500 1504 1508 1512 1516 1521 1525 1529 1532 1536 1539 1541 1543 1545 1547 1548 1549 1549 1550 1550 1550 1550 1549 1549 1548 1548
1485 1490 1496 1498 1490 1492 1498 1487 1488 1490 1489 1492 1495 1488 1485 1487 1489 1490 1494 1498 1502 1507 1512 1517 1521 1526 1530 1534 1537 1539 1542 1544 1545 1547 1548 1548 1548 1548 1548 1548 1548 1547 1547 1546
1482 1488 1495 1498 1496 1504 1486 1472 1474 1478 1479 1479 1478 1477 1478 1478 1481 1485 1488 1492 1497 1503 1508 1513 1518 1524 1528 1532 1535 1538 1540 1542 1544 1545 1546 1547 1547 1547 1547 1547 1546 1546 1545 1545
1475 1484 1495 1500 1500 1494 1479 1470 1471 1476 1476 1470 1472 1473 1475 1479 1483 1485 1487 1490 1493 1498 1504 1510 1515 1521 1525 1529 1533 1536 1538 1540 1542 1543 1544 1545 1545 1545 1545 1545 1545 1544 1544 1543
1477 1480 1491 1499 1497 1497 1478 1464 1464 1470 1476 1463 1465 1468 1472 1477 1486 1481 1480 1485 1491 1497 1502 1508 1513 1518 1523 1527 1530 1533 1536 1538 1539 1541 1542 1543 1543 1543 1543 1543 1543 1543 1542 1542
1482 1486 1491 1496 1495 1486 1466 1462 1465 1480 1474 1458 1459 1461 1466 1469 1470 1472 1476 1481 1487 1493 1499 1505 1510 1515 1520 1524 1527 1530 1533 1535 1537 1539 1540 1541 1541 1541 1542 1542 1541 1541 1541 1540
1477 1485 1490 1494 1495 1486 1459 1461 1465 1461 1454 1454 1455 1458 1461 1464 1468 1471 1475 1478 1483 1489 1495 1501 1507 1512 1516 1521 1524 1527 1530 1533 1535 1536 1537 1538 1539 1539 1539 1540 1539 1539 1538 1538
1469 1468 1472 1474 1470 1458 1456 1455 1453 1453 1453 1453 1454 1456 1459 1463 1466 1469 1473 1477 1481 1486 1492 1498 1503 1508 1513 1517 1521 1524 1527 1530 1532 1533 1535 1536 1536 1537 1537 1537 1537 1536 1536 1535
1463 1462 1465 1466 1459 1453 1452 1451 1451 1451 1452 1452 1454 1456 1458 1461 1464 1468 1472 1476 1480 1485 1490 1495 1500 1505 1509 1514 1518 1521 1525 1527 1529 1530 1532 1533 1533 1534 1534 1534 1534 1534 1533 1532
1456 1460 1462 1461 1454 1451 1448 1448 1448 1449 1450 1452 1453 1455 1458 1460 1464 1467 1471 1474 1478 1483 1488 1493 1497 1502 1506 1511 1514 1518 1521 1523 1525 1527 1528 1529 1530 1531 1531 1531 1531 1530 1530 1529
1452 1454 1457 1455 1448 1448 1447 1446 1447 1448 1449 1451 1452 1455 1457 1460 1463 1466 1469 1473 1477 1481 1486 1490 1495 1499 1503 1508 1511 1515 1517 1520 1521 1523 1524 1525 1526 1527 1527 1527 1527 1526 1526 1525